Вернуться в каталог

FENGYUN 1C DEB

АктивенPO
NORAD 29737·DEBRIS·🇨🇳 China

Запущен May 10, 1999 с Taiyuan Satellite Launch Center

Loading…

Ближайшие Пролёты (ближайшие 24 часа)

TLE

СвежийSource: Space-Track

Эпоха: Sep 13, 2026, 01:07 UTC

1 29737U 99025AB  26256.04673942 -.00000672  00000-0 -12901-2 0  9991
2 29737  99.5743 171.1365 0694708 265.1553  99.3091 12.66288497903402

Отслеживайте FENGYUN 1C DEB в реальном времени с AllMySat

Download on the App Store